Time,TemperatureF,DewpointF,PressureIn,WindDirection,WindDirectionDegrees,WindSpeedMPH,WindSpeedGustMPH,Humidity,HourlyPrecipIn,Conditions,Clouds,dailyrainin,SoftwareType,DateUTC
2013-03-02 00:00:00,25.6,24.1,29.96,West,279,2.0,5.0,94,0.00,,---,0.00,VWS V14.01,2013-03-02 05:00:00,
2013-03-02 00:05:00,25.5,24.0,29.96,WNW,301,4.0,4.0,94,0.00,,---,0.00,VWS V14.01,2013-03-02 05:05:00,
2013-03-02 00:10:00,25.5,24.0,29.96,West,280,5.0,5.0,94,0.00,,---,0.00,VWS V14.01,2013-03-02 05:10:00,
2013-03-02 00:15:00,25.4,23.9,29.95,NW,324,1.0,3.0,94,0.00,,---,0.00,VWS V14.01,2013-03-02 05:15:00,
2013-03-02 00:20:00,25.4,23.9,29.95,WNW,288,4.0,6.0,94,0.00,,---,0.00,VWS V14.01,2013-03-02 05:20:00,
2013-03-02 00:25:00,25.4,23.9,29.95,WNW,289,3.0,4.0,94,0.00,,---,0.00,VWS V14.01,2013-03-02 05:25:00,
2013-03-02 00:30:00,25.4,24.2,29.95,NW,321,1.0,5.0,95,0.00,,---,0.00,VWS V14.01,2013-03-02 05:30:00,
2013-03-02 00:35:00,25.4,24.2,29.95,WNW,291,2.0,5.0,95,0.00,,---,0.00,VWS V14.01,2013-03-02 05:35:00,
2013-03-02 00:40:00,25.4,24.2,29.95,NW,306,3.0,3.0,95,0.00,,---,0.00,VWS V14.01,2013-03-02 05:40:00,
2013-03-02 00:45:00,25.3,24.1,29.95,WNW,302,2.0,4.0,95,0.00,,---,0.00,VWS V14.01,2013-03-02 05:45:00,
2013-03-02 00:50:00,25.4,24.2,29.95,WNW,297,2.0,4.0,95,0.00,,---,0.00,VWS V14.01,2013-03-02 05:50:00,
2013-03-02 00:55:00,25.4,24.2,29.95,West,273,4.0,5.0,95,0.00,,---,0.00,VWS V14.01,2013-03-02 05:55:00,
2013-03-02 01:00:00,25.4,24.2,29.95,WNW,283,4.0,4.0,95,0.00,,---,0.00,VWS V14.01,2013-03-02 06:00:00,
2013-03-02 01:05:00,25.4,24.2,29.95,NW,304,5.0,5.0,95,0.00,,---,0.00,VWS V14.01,2013-03-02 06:05:00,
2013-03-02 01:10:00,25.3,24.1,29.95,WNW,282,3.0,6.0,95,0.00,,---,0.00,VWS V14.01,2013-03-02 06:10:00,
2013-03-02 01:15:00,25.3,24.3,29.95,NW,307,2.0,2.0,96,0.00,,---,0.00,VWS V14.01,2013-03-02 06:15:00,
2013-03-02 01:20:00,25.2,24.2,29.95,WNW,288,3.0,4.0,96,0.00,,---,0.00,VWS V14.01,2013-03-02 06:20:00,
2013-03-02 01:25:00,25.2,24.2,29.95,NW,307,2.0,5.0,96,0.00,,---,0.00,VWS V14.01,2013-03-02 06:25:00,
2013-03-02 01:30:00,25.2,24.2,29.95,NW,309,0.0,5.0,96,0.00,,---,0.00,VWS V14.01,2013-03-02 06:30:00,
2013-03-02 01:35:00,25.2,24.2,29.95,WNW,291,2.0,4.0,96,0.00,,---,0.00,VWS V14.01,2013-03-02 06:35:00,
2013-03-02 01:40:00,25.3,24.3,29.95,WNW,298,2.0,3.0,96,0.00,,---,0.00,VWS V14.01,2013-03-02 06:40:00,
2013-03-02 01:45:00,25.2,24.2,29.95,NW,326,2.0,3.0,96,0.00,,---,0.00,VWS V14.01,2013-03-02 06:45:00,
2013-03-02 01:50:00,25.2,24.2,29.95,WNW,297,4.0,5.0,96,0.00,,---,0.00,VWS V14.01,2013-03-02 06:50:00,
2013-03-02 01:55:00,25.2,24.2,29.95,WNW,299,3.0,3.0,96,0.00,,---,0.00,VWS V14.01,2013-03-02 06:55:00,
2013-03-02 02:00:00,25.1,24.1,29.95,West,277,2.0,3.0,96,0.00,,---,0.00,VWS V14.01,2013-03-02 07:00:00,
2013-03-02 02:05:00,25.2,24.2,29.95,NW,307,1.0,5.0,96,0.00,,---,0.00,VWS V14.01,2013-03-02 07:05:00,
2013-03-02 02:10:00,25.1,24.1,29.95,NW,323,2.0,3.0,96,0.00,,---,0.00,VWS V14.01,2013-03-02 07:10:00,
2013-03-02 02:15:00,25.1,24.4,29.95,WNW,291,2.0,3.0,97,0.00,,---,0.00,VWS V14.01,2013-03-02 07:15:00,
2013-03-02 02:20:00,25.1,24.4,29.95,WNW,301,2.0,3.0,97,0.00,,---,0.00,VWS V14.01,2013-03-02 07:20:00,
2013-03-02 02:25:00,25.1,24.4,29.95,NW,316,3.0,3.0,97,0.00,,---,0.00,VWS V14.01,2013-03-02 07:25:00,
2013-03-02 02:30:00,25.0,24.3,29.95,WNW,287,1.0,4.0,97,0.00,,---,0.00,VWS V14.01,2013-03-02 07:30:00,
2013-03-02 02:35:00,25.0,24.3,29.94,NW,304,3.0,3.0,97,0.00,,---,0.00,VWS V14.01,2013-03-02 07:35:00,
2013-03-02 02:40:00,25.0,24.3,29.94,NW,307,4.0,4.0,97,0.00,,---,0.00,VWS V14.01,2013-03-02 07:40:00,
2013-03-02 02:45:00,24.9,24.2,29.93,WNW,303,0.0,3.0,97,0.00,,---,0.00,VWS V14.01,2013-03-02 07:45:00,
2013-03-02 02:50:00,25.0,24.3,29.93,NW,305,1.0,3.0,97,0.00,,---,0.00,VWS V14.01,2013-03-02 07:50:00,
2013-03-02 02:55:00,24.9,24.2,29.93,NW,304,3.0,4.0,97,0.00,,---,0.00,VWS V14.01,2013-03-02 07:55:00,
2013-03-02 03:00:00,25.0,24.3,29.93,NW,305,2.0,3.0,97,0.00,,---,0.00,VWS V14.01,2013-03-02 08:00:00,
2013-03-02 03:05:00,25.0,24.3,29.93,WNW,287,1.0,3.0,97,0.00,,---,0.00,VWS V14.01,2013-03-02 08:05:00,
2013-03-02 03:10:00,25.0,24.3,29.93,WNW,303,2.0,3.0,97,0.00,,---,0.00,VWS V14.01,2013-03-02 08:10:00,
2013-03-02 03:15:00,25.1,24.4,29.93,WNW,301,1.0,3.0,97,0.00,,---,0.00,VWS V14.01,2013-03-02 08:15:00,
2013-03-02 03:20:00,24.9,24.2,29.93,NW,309,1.0,4.0,97,0.00,,---,0.00,VWS V14.01,2013-03-02 08:20:00,
2013-03-02 03:25:00,25.0,24.3,29.92,East,85,3.0,5.0,97,0.00,,---,0.00,VWS V14.01,2013-03-02 08:25:00,
2013-03-02 03:30:00,25.0,24.3,29.92,NW,305,1.0,2.0,97,0.00,,---,0.00,VWS V14.01,2013-03-02 08:30:00,
2013-03-02 03:35:00,24.9,24.2,29.91,WNW,284,2.0,3.0,97,0.00,,---,0.00,VWS V14.01,2013-03-02 08:35:00,
2013-03-02 03:40:00,24.8,24.1,29.91,WSW,253,0.0,3.0,97,0.00,,---,0.00,VWS V14.01,2013-03-02 08:40:00,
2013-03-02 03:45:00,24.8,24.1,29.91,WNW,295,1.0,3.0,97,0.00,,---,0.00,VWS V14.01,2013-03-02 08:45:00,
2013-03-02 03:50:00,24.8,24.1,29.91,WSW,239,3.0,4.0,97,0.00,,---,0.00,VWS V14.01,2013-03-02 08:50:00,
2013-03-02 03:55:00,24.7,24.0,29.91,WNW,295,3.0,4.0,97,0.00,,---,0.00,VWS V14.01,2013-03-02 08:55:00,
2013-03-02 04:00:00,24.7,24.0,29.91,WNW,299,2.0,5.0,97,0.00,,---,0.00,VWS V14.01,2013-03-02 09:00:00,
2013-03-02 04:05:00,24.7,24.0,29.91,WNW,293,0.0,4.0,97,0.00,,---,0.00,VWS V14.01,2013-03-02 09:05:00,
2013-03-02 04:10:00,24.6,23.9,29.91,WNW,295,0.0,3.0,97,0.00,,---,0.00,VWS V14.01,2013-03-02 09:10:00,
2013-03-02 04:15:00,24.6,23.9,29.91,NW,316,3.0,7.0,97,0.00,,---,0.00,VWS V14.01,2013-03-02 09:15:00,
2013-03-02 04:20:00,24.6,23.9,29.91,WNW,299,1.0,4.0,97,0.00,,---,0.00,VWS V14.01,2013-03-02 09:20:00,
2013-03-02 04:25:00,24.6,23.9,29.91,WNW,295,1.0,3.0,97,0.00,,---,0.00,VWS V14.01,2013-03-02 09:25:00,
2013-03-02 04:30:00,24.7,24.0,29.91,West,268,1.0,3.0,97,0.00,,---,0.00,VWS V14.01,2013-03-02 09:30:00,
2013-03-02 04:35:00,24.7,24.0,29.91,West,278,1.0,6.0,97,0.00,,---,0.00,VWS V14.01,2013-03-02 09:35:00,
2013-03-02 04:40:00,24.6,23.9,29.91,WNW,287,2.0,3.0,97,0.00,,---,0.00,VWS V14.01,2013-03-02 09:40:00,
2013-03-02 04:45:00,24.6,23.9,29.91,NNW,328,1.0,2.0,97,0.00,,---,0.00,VWS V14.01,2013-03-02 09:45:00,
2013-03-02 04:50:00,24.6,23.9,29.91,WNW,299,1.0,3.0,97,0.00,,---,0.00,VWS V14.01,2013-03-02 09:50:00,
2013-03-02 04:55:00,24.5,23.8,29.91,WNW,301,0.0,1.0,97,0.00,,---,0.00,VWS V14.01,2013-03-02 09:55:00,
2013-03-02 05:00:00,24.6,23.9,29.91,West,262,1.0,4.0,97,0.00,,---,0.00,VWS V14.01,2013-03-02 10:00:00,
2013-03-02 05:05:00,24.6,23.9,29.91,NW,316,1.0,2.0,97,0.00,,---,0.00,VWS V14.01,2013-03-02 10:05:00,
2013-03-02 05:10:00,24.7,24.0,29.90,NW,314,2.0,4.0,97,0.00,,---,0.00,VWS V14.01,2013-03-02 10:10:00,
2013-03-02 05:15:00,24.6,23.9,29.90,SW,235,1.0,4.0,97,0.00,,---,0.00,VWS V14.01,2013-03-02 10:15:00,
2013-03-02 05:20:00,24.6,23.9,29.91,West,272,4.0,4.0,97,0.00,,---,0.00,VWS V14.01,2013-03-02 10:20:00,
2013-03-02 05:25:00,24.6,23.9,29.90,NW,318,2.0,3.0,97,0.00,,---,0.00,VWS V14.01,2013-03-02 10:25:00,
2013-03-02 05:30:00,24.6,23.9,29.91,NW,316,0.0,2.0,97,0.00,,---,0.00,VWS V14.01,2013-03-02 10:30:00,
2013-03-02 05:35:00,24.6,23.9,29.91,NW,314,2.0,3.0,97,0.00,,---,0.00,VWS V14.01,2013-03-02 10:35:00,
2013-03-02 05:40:00,24.6,23.9,29.91,WNW,293,1.0,2.0,97,0.00,,---,0.00,VWS V14.01,2013-03-02 10:40:00,
2013-03-02 05:45:00,24.5,23.8,29.91,NNW,330,1.0,6.0,97,0.00,,---,0.00,VWS V14.01,2013-03-02 10:45:00,
2013-03-02 05:50:00,24.5,23.8,29.91,NW,319,1.0,2.0,97,0.00,,---,0.00,VWS V14.01,2013-03-02 10:50:00,
2013-03-02 05:55:00,24.5,23.8,29.91,WNW,302,3.0,3.0,97,0.00,,---,0.00,VWS V14.01,2013-03-02 10:55:00,
2013-03-02 06:00:00,24.5,23.8,29.91,West,262,3.0,5.0,97,0.00,,---,0.00,VWS V14.01,2013-03-02 11:00:00,
2013-03-02 06:05:00,24.5,23.8,29.91,NW,316,2.0,3.0,97,0.00,,---,0.00,VWS V14.01,2013-03-02 11:05:00,
2013-03-02 06:10:00,24.4,23.7,29.90,WNW,302,1.0,2.0,97,0.00,,---,0.00,VWS V14.01,2013-03-02 11:10:00,
2013-03-02 06:15:00,24.5,23.8,29.90,NNW,330,2.0,3.0,97,0.00,,---,0.00,VWS V14.01,2013-03-02 11:15:00,
2013-03-02 06:20:00,24.6,23.9,29.90,WNW,303,2.0,3.0,97,0.00,,---,0.00,VWS V14.01,2013-03-02 11:20:00,
2013-03-02 06:25:00,24.5,23.8,29.91,NNW,332,2.0,6.0,97,0.00,,---,0.00,VWS V14.01,2013-03-02 11:25:00,
2013-03-02 06:30:00,24.5,23.8,29.90,West,280,2.0,4.0,97,0.00,,---,0.00,VWS V14.01,2013-03-02 11:30:00,
2013-03-02 06:35:00,24.5,23.8,29.90,WNW,299,3.0,3.0,97,0.00,,---,0.00,VWS V14.01,2013-03-02 11:35:00,
2013-03-02 06:40:00,24.4,23.7,29.90,West,269,2.0,4.0,97,0.00,,---,0.00,VWS V14.01,2013-03-02 11:40:00,
2013-03-02 06:45:00,24.3,23.6,29.91,NW,324,2.0,2.0,97,0.00,,---,0.00,VWS V14.01,2013-03-02 11:45:00,
2013-03-02 06:50:00,24.2,23.5,29.91,West,269,1.0,4.0,97,0.00,,---,0.00,VWS V14.01,2013-03-02 11:50:00,
2013-03-02 06:55:00,24.2,23.5,29.91,NW,314,2.0,4.0,97,0.00,,---,0.00,VWS V14.01,2013-03-02 11:55:00,
2013-03-02 07:00:00,24.1,23.4,29.91,West,272,2.0,4.0,97,0.00,,---,0.00,VWS V14.01,2013-03-02 12:00:00,
2013-03-02 07:05:00,24.0,23.3,29.91,WNW,289,1.0,3.0,97,0.00,,---,0.00,VWS V14.01,2013-03-02 12:05:00,
2013-03-02 07:10:00,24.0,23.3,29.91,WNW,295,2.0,4.0,97,0.00,,---,0.00,VWS V14.01,2013-03-02 12:10:00,
2013-03-02 07:15:00,23.9,23.2,29.91,NNW,341,2.0,4.0,97,0.00,,---,0.00,VWS V14.01,2013-03-02 12:15:00,
2013-03-02 07:20:00,23.9,23.2,29.91,West,272,5.0,5.0,97,0.00,,---,0.00,VWS V14.01,2013-03-02 12:20:00,
2013-03-02 07:25:00,23.9,23.2,29.91,West,276,2.0,4.0,97,0.00,,---,0.00,VWS V14.01,2013-03-02 12:25:00,
2013-03-02 07:30:00,24.0,23.3,29.92,WNW,298,0.0,1.0,97,0.00,,---,0.00,VWS V14.01,2013-03-02 12:30:00,
2013-03-02 07:35:00,24.0,23.3,29.92,NW,309,2.0,2.0,97,0.00,,---,0.00,VWS V14.01,2013-03-02 12:35:00,
2013-03-02 07:40:00,23.9,23.2,29.92,WNW,284,3.0,3.0,97,0.00,,---,0.00,VWS V14.01,2013-03-02 12:40:00,
2013-03-02 07:45:00,23.9,23.2,29.92,WNW,297,0.0,4.0,97,0.00,,---,0.00,VWS V14.01,2013-03-02 12:45:00,
2013-03-02 07:50:00,24.0,23.3,29.92,NNW,336,1.0,4.0,97,0.00,,---,0.00,VWS V14.01,2013-03-02 12:50:00,
2013-03-02 07:55:00,23.9,23.2,29.92,NW,324,3.0,4.0,97,0.00,,---,0.00,VWS V14.01,2013-03-02 12:55:00,
2013-03-02 08:00:00,24.0,23.3,29.92,WNW,296,3.0,6.0,97,0.00,,---,0.00,VWS V14.01,2013-03-02 13:00:00,
2013-03-02 08:05:00,24.0,23.3,29.92,WSW,256,3.0,6.0,97,0.00,,---,0.00,VWS V14.01,2013-03-02 13:05:00,
2013-03-02 08:10:00,24.1,23.1,29.92,WNW,288,2.0,6.0,96,0.00,,---,0.00,VWS V14.01,2013-03-02 13:10:00,
2013-03-02 08:15:00,24.4,23.4,29.92,West,279,2.0,6.0,96,0.00,,---,0.00,VWS V14.01,2013-03-02 13:15:00,
2013-03-02 08:20:00,25.6,24.9,29.92,West,270,2.0,5.0,97,0.00,,---,0.00,VWS V14.01,2013-03-02 13:20:00,
2013-03-02 08:25:00,25.8,24.6,29.92,West,265,5.0,5.0,95,0.00,,---,0.00,VWS V14.01,2013-03-02 13:25:00,
2013-03-02 08:30:00,25.8,24.3,29.92,West,272,6.0,6.0,94,0.00,,---,0.00,VWS V14.01,2013-03-02 13:30:00,
2013-03-02 08:35:00,25.8,24.1,29.92,WSW,247,5.0,6.0,93,0.00,,---,0.00,VWS V14.01,2013-03-02 13:35:00,
2013-03-02 08:40:00,25.9,24.2,29.92,NW,326,1.0,4.0,93,0.00,,---,0.00,VWS V14.01,2013-03-02 13:40:00,
2013-03-02 08:45:00,26.2,24.5,29.93,NW,320,1.0,3.0,93,0.00,,---,0.00,VWS V14.01,2013-03-02 13:45:00,
2013-03-02 08:50:00,26.2,24.2,29.93,WNW,282,2.0,5.0,92,0.00,,---,0.00,VWS V14.01,2013-03-02 13:50:00,
2013-03-02 08:55:00,26.0,24.0,29.93,WNW,297,2.0,5.0,92,0.00,,---,0.00,VWS V14.01,2013-03-02 13:55:00,
2013-03-02 09:00:00,26.4,24.4,29.93,West,261,2.0,4.0,92,0.00,,---,0.00,VWS V14.01,2013-03-02 14:00:00,
2013-03-02 09:05:00,26.3,23.8,29.92,West,261,4.0,8.0,90,0.00,,---,0.00,VWS V14.01,2013-03-02 14:05:00,
2013-03-02 09:10:00,25.9,23.4,29.93,NNW,336,1.0,5.0,90,0.00,,---,0.00,VWS V14.01,2013-03-02 14:10:00,
2013-03-02 09:15:00,25.6,23.3,29.92,West,270,4.0,4.0,91,0.00,,---,0.00,VWS V14.01,2013-03-02 14:15:00,
2013-03-02 09:20:00,25.9,23.9,29.92,NW,311,6.0,6.0,92,0.00,,---,0.00,VWS V14.01,2013-03-02 14:20:00,
2013-03-02 09:25:00,26.5,24.5,29.92,WNW,299,3.0,6.0,92,0.00,,---,0.00,VWS V14.01,2013-03-02 14:25:00,
2013-03-02 09:30:00,26.9,24.4,29.93,West,262,4.0,6.0,90,0.00,,---,0.00,VWS V14.01,2013-03-02 14:30:00,
2013-03-02 09:35:00,27.1,24.0,29.93,West,262,2.0,5.0,88,0.00,,---,0.00,VWS V14.01,2013-03-02 14:35:00,
2013-03-02 09:40:00,27.4,24.3,29.93,West,268,1.0,7.0,88,0.00,,---,0.00,VWS V14.01,2013-03-02 14:40:00,
2013-03-02 09:45:00,27.7,24.6,29.93,SW,232,6.0,6.0,88,0.00,,---,0.00,VWS V14.01,2013-03-02 14:45:00,
2013-03-02 09:50:00,27.7,24.6,29.93,WSW,249,3.0,7.0,88,0.00,,---,0.00,VWS V14.01,2013-03-02 14:50:00,
2013-03-02 09:55:00,28.3,25.5,29.93,NW,320,4.0,4.0,89,0.00,,---,0.00,VWS V14.01,2013-03-02 14:55:00,
2013-03-02 10:00:00,27.9,24.5,29.93,NNW,332,3.0,5.0,87,0.00,,---,0.00,VWS V14.01,2013-03-02 15:00:00,
2013-03-02 10:05:00,28.1,24.7,29.93,NNW,328,3.0,4.0,87,0.00,,---,0.00,VWS V14.01,2013-03-02 15:05:00,
2013-03-02 10:10:00,28.2,24.8,29.93,NNE,25,4.0,6.0,87,0.01,,---,0.01,VWS V14.01,2013-03-02 15:10:00,
2013-03-02 10:15:00,28.9,26.3,29.93,NW,319,3.0,4.0,90,0.01,,---,0.01,VWS V14.01,2013-03-02 15:15:00,
2013-03-02 10:20:00,30.2,26.5,29.93,West,271,3.0,7.0,86,0.01,,---,0.01,VWS V14.01,2013-03-02 15:20:00,
2013-03-02 10:25:00,29.8,26.1,29.93,SW,226,6.0,8.0,86,0.01,,---,0.01,VWS V14.01,2013-03-02 15:25:00,
2013-03-02 10:30:00,28.9,25.2,29.93,WNW,291,2.0,5.0,86,0.01,,---,0.01,VWS V14.01,2013-03-02 15:30:00,
2013-03-02 10:35:00,30.4,26.7,29.93,West,281,5.0,5.0,86,0.01,,---,0.01,VWS V14.01,2013-03-02 15:35:00,
2013-03-02 10:40:00,30.8,26.3,29.93,WNW,282,9.0,9.0,83,0.01,,---,0.01,VWS V14.01,2013-03-02 15:40:00,
2013-03-02 10:45:00,31.4,26.8,29.93,NW,318,2.0,7.0,83,0.01,,---,0.01,VWS V14.01,2013-03-02 15:45:00,
2013-03-02 10:50:00,32.2,27.9,29.93,NNW,343,3.0,8.0,84,0.02,,---,0.02,VWS V14.01,2013-03-02 15:50:00,
2013-03-02 10:55:00,32.7,28.7,29.93,West,268,1.0,3.0,85,0.02,,---,0.02,VWS V14.01,2013-03-02 15:55:00,
2013-03-02 11:00:00,31.4,26.2,29.93,West,267,2.0,4.0,81,0.02,,---,0.02,VWS V14.01,2013-03-02 16:00:00,
2013-03-02 11:05:00,30.3,26.1,29.93,West,281,3.0,4.0,84,0.02,,---,0.02,VWS V14.01,2013-03-02 16:05:00,
2013-03-02 11:10:00,29.5,24.4,29.93,WNW,300,2.0,5.0,81,0.02,,---,0.03,VWS V14.01,2013-03-02 16:10:00,
2013-03-02 11:15:00,29.8,25.6,29.94,West,280,3.0,6.0,84,0.02,,---,0.03,VWS V14.01,2013-03-02 16:15:00,
2013-03-02 11:20:00,29.6,24.5,29.94,WNW,298,1.0,5.0,81,0.02,,---,0.03,VWS V14.01,2013-03-02 16:20:00,
2013-03-02 11:25:00,29.3,25.1,29.94,NNW,348,2.0,5.0,84,0.03,,---,0.04,VWS V14.01,2013-03-02 16:25:00,
2013-03-02 12:14:00,32.6,28.0,29.94,WNW,297,3.0,3.0,83,0.04,,---,0.07,VWS V14.01,2013-03-02 17:14:00,
2013-03-02 12:19:00,31.6,25.2,29.93,WNW,297,1.0,4.0,77,0.04,,---,0.07,VWS V14.01,2013-03-02 17:19:00,
2013-03-02 12:24:00,31.0,25.0,29.93,NW,326,2.0,3.0,78,0.03,,---,0.07,VWS V14.01,2013-03-02 17:24:00,
2013-03-02 12:29:00,30.5,25.1,29.93,West,274,2.0,2.0,80,0.03,,---,0.07,VWS V14.01,2013-03-02 17:29:00,
2013-03-02 12:34:00,29.9,23.9,29.93,West,273,1.0,3.0,78,0.03,,---,0.07,VWS V14.01,2013-03-02 17:34:00,
2013-03-02 12:39:00,30.5,25.1,29.93,NW,315,5.0,7.0,80,0.02,,---,0.07,VWS V14.01,2013-03-02 17:39:00,
2013-03-02 12:44:00,30.3,25.2,29.93,West,268,1.0,3.0,81,0.02,,---,0.07,VWS V14.01,2013-03-02 17:44:00,
2013-03-02 12:49:00,29.3,24.2,29.93,WNW,302,3.0,4.0,81,0.01,,---,0.07,VWS V14.01,2013-03-02 17:49:00,
2013-03-02 12:54:00,28.5,24.0,29.93,NW,309,1.0,2.0,83,0.01,,---,0.07,VWS V14.01,2013-03-02 17:54:00,
2013-03-02 12:59:00,28.6,24.7,29.93,NNW,338,3.0,3.0,85,0.01,,---,0.07,VWS V14.01,2013-03-02 17:59:00,
2013-03-02 13:04:00,29.1,24.6,29.92,WNW,293,3.0,4.0,83,0.00,,---,0.07,VWS V14.01,2013-03-02 18:04:00,
2013-03-02 13:09:00,29.3,24.8,29.92,NNW,331,4.0,5.0,83,0.00,,---,0.07,VWS V14.01,2013-03-02 18:09:00,
2013-03-02 13:14:00,30.4,26.1,29.92,WNW,288,4.0,4.0,84,0.00,,---,0.07,VWS V14.01,2013-03-02 18:14:00,
2013-03-02 13:19:00,32.7,27.5,29.92,SSW,204,4.0,5.0,81,0.00,,---,0.07,VWS V14.01,2013-03-02 18:19:00,
2013-03-02 13:30:00,31.1,26.0,29.92,West,270,1.0,3.0,81,0.00,,---,0.07,VWS V14.01,2013-03-02 18:30:00,
2013-03-02 13:35:00,31.1,26.3,29.92,West,274,2.0,2.0,82,0.00,,---,0.07,VWS V14.01,2013-03-02 18:35:00,
2013-03-02 13:40:00,30.4,25.0,29.92,WNW,299,2.0,3.0,80,0.00,,---,0.07,VWS V14.01,2013-03-02 18:40:00,
2013-03-02 13:45:00,30.1,25.9,29.91,West,277,6.0,6.0,84,0.00,,---,0.07,VWS V14.01,2013-03-02 18:45:00,
2013-03-02 13:50:00,30.5,25.4,29.91,NNW,328,2.0,5.0,81,0.00,,---,0.07,VWS V14.01,2013-03-02 18:50:00,
2013-03-02 13:55:00,29.9,25.1,29.91,WNW,293,3.0,5.0,82,0.00,,---,0.07,VWS V14.01,2013-03-02 18:55:00,
2013-03-02 14:00:00,29.9,24.8,29.91,NNE,12,5.0,5.0,81,0.00,,---,0.07,VWS V14.01,2013-03-02 19:00:00,
2013-03-02 14:05:00,31.1,25.4,29.91,NW,314,2.0,5.0,79,0.00,,---,0.07,VWS V14.01,2013-03-02 19:05:00,
2013-03-02 14:10:00,30.5,24.5,29.91,NW,315,1.0,2.0,78,0.00,,---,0.07,VWS V14.01,2013-03-02 19:10:00,
2013-03-02 14:15:00,30.4,24.7,29.91,West,276,4.0,4.0,79,0.00,,---,0.07,VWS V14.01,2013-03-02 19:15:00,
2013-03-02 14:20:00,30.7,24.7,29.91,West,262,2.0,3.0,78,0.00,,---,0.07,VWS V14.01,2013-03-02 19:20:00,
2013-03-02 14:25:00,30.6,24.9,29.91,SW,228,1.0,6.0,79,0.00,,---,0.07,VWS V14.01,2013-03-02 19:25:00,
2013-03-02 14:30:00,30.7,25.3,29.91,NW,318,1.0,6.0,80,0.00,,---,0.07,VWS V14.01,2013-03-02 19:30:00,
2013-03-02 14:35:00,30.3,25.2,29.91,NW,309,2.0,7.0,81,0.00,,---,0.07,VWS V14.01,2013-03-02 19:35:00,
2013-03-02 14:40:00,29.4,24.9,29.91,WNW,291,2.0,2.0,83,0.00,,---,0.07,VWS V14.01,2013-03-02 19:40:00,
2013-03-02 14:45:00,29.6,25.9,29.91,North,351,5.0,5.0,86,0.00,,---,0.07,VWS V14.01,2013-03-02 19:45:00,
2013-03-02 14:50:00,28.8,25.1,29.91,NW,318,3.0,4.0,86,0.00,,---,0.07,VWS V14.01,2013-03-02 19:50:00,
2013-03-02 14:55:00,28.5,25.7,29.91,NW,309,3.0,3.0,89,0.00,,---,0.07,VWS V14.01,2013-03-02 19:55:00,
2013-03-02 14:59:00,29.5,26.9,29.91,West,276,2.0,2.0,90,0.00,,---,0.07,VWS V14.01,2013-03-02 19:59:00,
2013-03-02 15:04:00,30.8,28.0,29.91,NW,316,1.0,5.0,89,0.00,,---,0.07,VWS V14.01,2013-03-02 20:04:00,
2013-03-02 15:09:00,31.0,27.6,29.91,WNW,301,3.0,3.0,87,0.00,,---,0.07,VWS V14.01,2013-03-02 20:09:00,
2013-03-02 15:14:00,30.4,26.1,29.91,West,279,2.0,5.0,84,0.00,,---,0.07,VWS V14.01,2013-03-02 20:14:00,
2013-03-02 15:19:00,30.3,25.8,29.90,West,278,2.0,4.0,83,0.00,,---,0.07,VWS V14.01,2013-03-02 20:19:00,
2013-03-02 15:24:00,30.2,26.0,29.91,West,273,3.0,4.0,84,0.00,,---,0.07,VWS V14.01,2013-03-02 20:24:00,
2013-03-02 15:29:00,29.9,24.5,29.91,WNW,295,0.0,1.0,80,0.00,,---,0.07,VWS V14.01,2013-03-02 20:29:00,
2013-03-02 15:34:00,29.6,24.8,29.91,WNW,297,1.0,3.0,82,0.00,,---,0.07,VWS V14.01,2013-03-02 20:34:00,
2013-03-02 15:39:00,29.0,24.8,29.91,SW,233,0.0,2.0,84,0.00,,---,0.07,VWS V14.01,2013-03-02 20:39:00,
2013-03-02 15:44:00,28.4,24.2,29.91,West,276,1.0,3.0,84,0.00,,---,0.07,VWS V14.01,2013-03-02 20:44:00,
2013-03-02 15:49:00,27.6,24.0,29.91,West,280,2.0,4.0,86,0.00,,---,0.07,VWS V14.01,2013-03-02 20:49:00,
2013-03-02 15:54:00,27.4,24.3,29.91,WNW,293,2.0,3.0,88,0.00,,---,0.07,VWS V14.01,2013-03-02 20:54:00,
2013-03-02 15:59:00,27.4,24.0,29.92,NW,306,1.0,2.0,87,0.00,,---,0.07,VWS V14.01,2013-03-02 20:59:00,
2013-03-02 16:04:00,27.3,24.2,29.92,West,278,3.0,3.0,88,0.00,,---,0.07,VWS V14.01,2013-03-02 21:04:00,
2013-03-02 16:09:00,27.2,24.4,29.92,NNW,332,1.0,4.0,89,0.00,,---,0.07,VWS V14.01,2013-03-02 21:09:00,
2013-03-02 16:14:00,27.2,24.9,29.92,WSW,253,6.0,6.0,91,0.00,,---,0.07,VWS V14.01,2013-03-02 21:14:00,
2013-03-02 16:19:00,27.1,24.8,29.92,NW,324,3.0,4.0,91,0.00,,---,0.07,VWS V14.01,2013-03-02 21:19:00,
2013-03-02 16:24:00,26.7,24.4,29.92,WNW,295,2.0,3.0,91,0.00,,---,0.07,VWS V14.01,2013-03-02 21:24:00,
2013-03-02 16:29:00,26.6,24.3,29.92,WNW,303,2.0,4.0,91,0.00,,---,0.07,VWS V14.01,2013-03-02 21:29:00,
2013-03-02 16:34:00,26.4,24.1,29.92,WNW,288,0.0,1.0,91,0.00,,---,0.07,VWS V14.01,2013-03-02 21:34:00,
2013-03-02 16:39:00,26.3,24.0,29.92,WNW,288,3.0,3.0,91,0.00,,---,0.07,VWS V14.01,2013-03-02 21:39:00,
2013-03-02 16:44:00,26.4,24.1,29.93,WNW,301,2.0,3.0,91,0.00,,---,0.07,VWS V14.01,2013-03-02 21:44:00,
2013-03-02 16:49:00,26.5,24.2,29.92,NW,306,3.0,5.0,91,0.00,,---,0.07,VWS V14.01,2013-03-02 21:49:00,
2013-03-02 16:54:00,26.4,23.9,29.92,NW,305,2.0,3.0,90,0.00,,---,0.07,VWS V14.01,2013-03-02 21:54:00,
2013-03-02 16:59:00,26.3,23.5,29.92,West,275,3.0,3.0,89,0.00,,---,0.07,VWS V14.01,2013-03-02 21:59:00,
2013-03-02 17:04:00,26.2,23.7,29.93,WNW,283,1.0,2.0,90,0.00,,---,0.07,VWS V14.01,2013-03-02 22:04:00,
2013-03-02 17:09:00,26.0,23.5,29.93,NW,326,0.0,3.0,90,0.00,,---,0.07,VWS V14.01,2013-03-02 22:09:00,
2013-03-02 17:14:00,26.1,24.1,29.93,WNW,294,2.0,5.0,92,0.00,,---,0.07,VWS V14.01,2013-03-02 22:14:00,
2013-03-02 17:19:00,26.2,24.2,29.93,WNW,295,3.0,3.0,92,0.00,,---,0.07,VWS V14.01,2013-03-02 22:19:00,
2013-03-02 17:24:00,26.3,24.3,29.93,West,276,2.0,3.0,92,0.00,,---,0.07,VWS V14.01,2013-03-02 22:24:00,
2013-03-02 17:29:00,25.9,23.4,29.93,WNW,297,3.0,3.0,90,0.00,,---,0.07,VWS V14.01,2013-03-02 22:29:00,
2013-03-02 17:34:00,25.5,22.7,29.93,NW,308,2.0,5.0,89,0.00,,---,0.07,VWS V14.01,2013-03-02 22:34:00,
2013-03-02 17:41:00,25.3,22.5,29.93,WNW,292,3.0,7.0,89,0.00,,---,0.07,VWS V14.01,2013-03-02 22:41:00,
2013-03-02 17:46:00,25.3,22.5,29.93,WNW,301,1.0,5.0,89,0.00,,---,0.07,VWS V14.01,2013-03-02 22:46:00,
2013-03-02 17:51:00,25.5,23.0,29.93,WNW,286,3.0,3.0,90,0.00,,---,0.07,VWS V14.01,2013-03-02 22:51:00,
2013-03-02 17:56:00,25.7,23.2,29.94,WNW,295,2.0,3.0,90,0.00,,---,0.07,VWS V14.01,2013-03-02 22:56:00,
2013-03-02 18:01:00,25.4,22.6,29.94,WNW,294,2.0,2.0,89,0.00,,---,0.07,VWS V14.01,2013-03-02 23:01:00,
2013-03-02 18:06:00,25.4,22.9,29.94,West,271,3.0,3.0,90,0.00,,---,0.07,VWS V14.01,2013-03-02 23:06:00,
2013-03-02 18:11:00,25.2,22.7,29.94,NNE,12,3.0,5.0,90,0.00,,---,0.07,VWS V14.01,2013-03-02 23:11:00,
2013-03-02 18:16:00,25.1,22.6,29.94,WNW,302,3.0,4.0,90,0.00,,---,0.07,VWS V14.01,2013-03-02 23:16:00,
2013-03-02 18:21:00,24.9,22.1,29.94,West,280,1.0,4.0,89,0.00,,---,0.07,VWS V14.01,2013-03-02 23:21:00,
2013-03-02 18:26:00,24.9,22.1,29.94,West,278,4.0,4.0,89,0.00,,---,0.07,VWS V14.01,2013-03-02 23:26:00,
2013-03-02 18:31:00,24.8,22.0,29.94,WNW,293,2.0,4.0,89,0.00,,---,0.07,VWS V14.01,2013-03-02 23:31:00,
2013-03-02 18:36:00,24.7,21.9,29.94,West,270,4.0,4.0,89,0.00,,---,0.07,VWS V14.01,2013-03-02 23:36:00,
2013-03-02 18:41:00,24.7,21.9,29.94,WSW,247,1.0,7.0,89,0.00,,---,0.07,VWS V14.01,2013-03-02 23:41:00,
2013-03-02 18:46:00,24.5,21.7,29.94,WSW,255,8.0,8.0,89,0.00,,---,0.07,VWS V14.01,2013-03-02 23:46:00,
2013-03-02 18:51:00,24.4,21.6,29.94,WNW,282,1.0,3.0,89,0.00,,---,0.07,VWS V14.01,2013-03-02 23:51:00,
2013-03-02 18:56:00,24.4,21.9,29.94,West,262,2.0,3.0,90,0.00,,---,0.07,VWS V14.01,2013-03-02 23:56:00,
2013-03-02 19:01:00,24.4,21.9,29.94,West,278,2.0,5.0,90,0.00,,---,0.07,VWS V14.01,2013-03-03 00:01:00,
2013-03-02 19:06:00,24.3,21.8,29.94,NW,306,2.0,5.0,90,0.00,,---,0.07,VWS V14.01,2013-03-03 00:06:00,
2013-03-02 19:11:00,24.1,21.6,29.94,WNW,282,2.0,3.0,90,0.00,,---,0.07,VWS V14.01,2013-03-03 00:11:00,
2013-03-02 19:16:00,24.0,21.5,29.94,West,281,1.0,7.0,90,0.00,,---,0.07,VWS V14.01,2013-03-03 00:16:00,
2013-03-02 19:21:00,23.7,21.2,29.94,SW,219,4.0,8.0,90,0.00,,---,0.07,VWS V14.01,2013-03-03 00:21:00,
2013-03-02 19:26:00,23.5,21.0,29.94,South,191,3.0,8.0,90,0.00,,---,0.07,VWS V14.01,2013-03-03 00:26:00,
2013-03-02 19:31:00,23.3,20.8,29.95,West,262,3.0,4.0,90,0.00,,---,0.07,VWS V14.01,2013-03-03 00:31:00,
2013-03-02 19:36:00,23.1,20.6,29.95,NW,304,2.0,5.0,90,0.00,,---,0.07,VWS V14.01,2013-03-03 00:36:00,
2013-03-02 19:41:00,23.0,20.5,29.95,WSW,257,3.0,3.0,90,0.00,,---,0.07,VWS V14.01,2013-03-03 00:41:00,
2013-03-02 19:46:00,22.9,20.4,29.95,East,79,2.0,8.0,90,0.00,,---,0.07,VWS V14.01,2013-03-03 00:46:00,
2013-03-02 19:51:00,22.9,20.7,29.95,NW,309,4.0,4.0,91,0.00,,---,0.07,VWS V14.01,2013-03-03 00:51:00,
2013-03-02 19:56:00,22.7,20.2,29.95,West,278,8.0,8.0,90,0.00,,---,0.07,VWS V14.01,2013-03-03 00:56:00,
2013-03-02 20:01:00,22.5,20.0,29.95,WNW,302,3.0,8.0,90,0.00,,---,0.07,VWS V14.01,2013-03-03 01:01:00,
2013-03-02 20:06:00,22.4,20.2,29.96,WSW,251,2.0,10.0,91,0.00,,---,0.07,VWS V14.01,2013-03-03 01:06:00,
2013-03-02 20:11:00,22.2,19.7,29.95,WNW,284,7.0,7.0,90,0.00,,---,0.07,VWS V14.01,2013-03-03 01:11:00,
2013-03-02 20:16:00,22.1,19.6,29.96,WSW,242,4.0,4.0,90,0.00,,---,0.07,VWS V14.01,2013-03-03 01:16:00,
2013-03-02 20:21:00,22.0,19.8,29.95,West,275,4.0,4.0,91,0.00,,---,0.07,VWS V14.01,2013-03-03 01:21:00,
2013-03-02 20:26:00,21.8,19.3,29.96,West,277,4.0,5.0,90,0.00,,---,0.07,VWS V14.01,2013-03-03 01:26:00,
2013-03-02 20:31:00,21.6,19.1,29.96,SW,235,4.0,4.0,90,0.00,,---,0.07,VWS V14.01,2013-03-03 01:31:00,
2013-03-02 20:36:00,21.3,18.8,29.96,SW,236,4.0,5.0,90,0.00,,---,0.07,VWS V14.01,2013-03-03 01:36:00,
2013-03-02 20:41:00,21.2,18.7,29.96,West,280,4.0,8.0,90,0.00,,---,0.07,VWS V14.01,2013-03-03 01:41:00,
2013-03-02 20:46:00,21.1,18.9,29.96,WNW,285,3.0,4.0,91,0.00,,---,0.07,VWS V14.01,2013-03-03 01:46:00,
2013-03-02 20:51:00,21.0,18.8,29.96,North,3,4.0,8.0,91,0.00,,---,0.07,VWS V14.01,2013-03-03 01:51:00,
2013-03-02 20:56:00,20.9,18.7,29.96,West,274,2.0,4.0,91,0.00,,---,0.07,VWS V14.01,2013-03-03 01:56:00,
2013-03-02 21:01:00,20.7,18.5,29.97,WNW,297,4.0,4.0,91,0.00,,---,0.07,VWS V14.01,2013-03-03 02:01:00,
2013-03-02 21:06:00,20.4,17.9,29.97,West,268,4.0,5.0,90,0.00,,---,0.07,VWS V14.01,2013-03-03 02:06:00,
2013-03-02 21:11:00,20.1,17.6,29.97,West,265,6.0,6.0,90,0.00,,---,0.07,VWS V14.01,2013-03-03 02:11:00,
2013-03-02 21:16:00,19.8,17.6,29.97,West,266,3.0,5.0,91,0.00,,---,0.07,VWS V14.01,2013-03-03 02:16:00,
2013-03-02 21:21:00,19.5,17.3,29.97,WNW,285,5.0,5.0,91,0.00,,---,0.07,VWS V14.01,2013-03-03 02:21:00,
2013-03-02 21:26:00,19.5,17.3,29.97,WSW,249,3.0,7.0,91,0.00,,---,0.07,VWS V14.01,2013-03-03 02:26:00,
2013-03-02 21:31:00,19.6,17.7,29.97,NW,309,5.0,6.0,92,0.00,,---,0.07,VWS V14.01,2013-03-03 02:31:00,
2013-03-02 21:36:00,19.7,17.8,29.97,SW,230,5.0,5.0,92,0.00,,---,0.07,VWS V14.01,2013-03-03 02:36:00,
2013-03-02 21:41:00,19.6,17.7,29.97,SW,232,2.0,6.0,92,0.00,,---,0.07,VWS V14.01,2013-03-03 02:41:00,
2013-03-02 21:46:00,19.7,17.8,29.97,WNW,285,5.0,6.0,92,0.00,,---,0.07,VWS V14.01,2013-03-03 02:46:00,
2013-03-02 21:51:00,19.5,17.3,29.97,WNW,303,4.0,8.0,91,0.00,,---,0.07,VWS V14.01,2013-03-03 02:51:00,
2013-03-02 21:56:00,19.3,17.4,29.97,North,351,4.0,9.0,92,0.00,,---,0.07,VWS V14.01,2013-03-03 02:56:00,
2013-03-02 22:01:00,19.1,16.9,29.97,WSW,251,7.0,7.0,91,0.00,,---,0.07,VWS V14.01,2013-03-03 03:01:00,
2013-03-02 22:06:00,19.0,17.1,29.96,West,264,8.0,10.0,92,0.00,,---,0.07,VWS V14.01,2013-03-03 03:06:00,
2013-03-02 22:11:00,18.9,16.7,29.96,WNW,298,3.0,10.0,91,0.00,,---,0.07,VWS V14.01,2013-03-03 03:11:00,
2013-03-02 22:16:00,18.8,16.9,29.96,SW,234,5.0,10.0,92,0.00,,---,0.07,VWS V14.01,2013-03-03 03:16:00,
2013-03-02 22:21:00,18.5,16.6,29.96,NW,304,4.0,7.0,92,0.00,,---,0.07,VWS V14.01,2013-03-03 03:21:00,
2013-03-02 22:26:00,18.4,16.5,29.96,WNW,303,10.0,11.0,92,0.00,,---,0.07,VWS V14.01,2013-03-03 03:26:00,
2013-03-02 22:31:00,18.4,16.5,29.96,WNW,296,5.0,10.0,92,0.00,,---,0.07,VWS V14.01,2013-03-03 03:31:00,
2013-03-02 22:36:00,18.4,16.5,29.96,WSW,237,4.0,9.0,92,0.00,,---,0.07,VWS V14.01,2013-03-03 03:36:00,
2013-03-02 22:41:00,18.4,16.5,29.96,NNW,341,9.0,12.0,92,0.00,,---,0.07,VWS V14.01,2013-03-03 03:41:00,
2013-03-02 22:46:00,18.2,16.3,29.96,WNW,298,5.0,9.0,92,0.00,,---,0.07,VWS V14.01,2013-03-03 03:46:00,
2013-03-02 22:51:00,18.2,16.3,29.96,West,278,6.0,10.0,92,0.00,,---,0.07,VWS V14.01,2013-03-03 03:51:00,
2013-03-02 22:56:00,18.1,16.2,29.96,WSW,249,5.0,8.0,92,0.00,,---,0.07,VWS V14.01,2013-03-03 03:56:00,
2013-03-02 23:01:00,18.0,16.1,29.96,NW,322,3.0,10.0,92,0.00,,---,0.07,VWS V14.01,2013-03-03 04:01:00,
2013-03-02 23:06:00,18.0,16.1,29.96,NW,322,5.0,10.0,92,0.00,,---,0.07,VWS V14.01,2013-03-03 04:06:00,
2013-03-02 23:11:00,18.0,16.1,29.96,WSW,256,6.0,8.0,92,0.00,,---,0.07,VWS V14.01,2013-03-03 04:11:00,
2013-03-02 23:16:00,17.9,16.0,29.96,WNW,287,4.0,9.0,92,0.00,,---,0.07,VWS V14.01,2013-03-03 04:16:00,
2013-03-02 23:21:00,17.8,15.9,29.96,WNW,301,8.0,12.0,92,0.00,,---,0.07,VWS V14.01,2013-03-03 04:21:00,
2013-03-02 23:26:00,17.8,15.9,29.96,WNW,287,5.0,10.0,92,0.00,,---,0.07,VWS V14.01,2013-03-03 04:26:00,
2013-03-02 23:31:00,17.7,16.0,29.95,NNW,338,10.0,12.0,93,0.00,,---,0.07,VWS V14.01,2013-03-03 04:31:00,
2013-03-02 23:36:00,17.6,15.7,29.96,WSW,239,9.0,10.0,92,0.00,,---,0.07,VWS V14.01,2013-03-03 04:36:00,
2013-03-02 23:41:00,17.5,15.6,29.96,West,264,2.0,4.0,92,0.00,,---,0.07,VWS V14.01,2013-03-03 04:41:00,
2013-03-02 23:46:00,17.5,15.8,29.96,NNW,335,5.0,10.0,93,0.00,,---,0.07,VWS V14.01,2013-03-03 04:46:00,
2013-03-02 23:51:00,17.4,15.7,29.96,West,280,5.0,6.0,93,0.00,,---,0.07,VWS V14.01,2013-03-03 04:51:00,
2013-03-02 23:56:00,17.2,15.5,29.96,WSW,237,7.0,7.0,93,0.00,,---,0.07,VWS V14.01,2013-03-03 04:56:00,